Regional Weather Roundup
Issued by NWS

Home | Current Version | Previous Version | Text Only | Print | Product List | Glossary Off
Versions: 1 2 3 4 5 6 7 8 9 10 11 12 13 14 15 16 17 18 19 20 21 22 23 24 25 26 27 28 29 30 31 32 33 34 35 36 37 38 39 40 41 42 43 44 45 46 47 48 49 50

000
ASUS45 KCYS 192110
RWRWY

WYOMING REGIONAL WEATHER ROUNDUP
NATIONAL WEATHER SERVICE CHEYENNE WY
300 PM MDT SUN OCT 19 2014

NOTE:  "FAIR" INDICATES FEW OR NO CLOUDS BELOW 12,000 FEET
WITH NO SIGNIFICANT WEATHER AND/OR OBSTRUCTIONS TO VISIBILITY.

WYZ001-192200-
YELLOWSTONE NATIONAL PARK

CITY           SKY/WX    TMP DP  RH WIND       PRES   REMARKS
LK YELLOWSTONE   N/A     54  34  46 VRB5      30.23F
W YELLOWSTONE  NOT AVBL

$$
WYZ002>013-054>058-071-098>099-192200-
NORTHERN WYOMING

CITY           SKY/WX    TMP DP  RH WIND       PRES   REMARKS
JACKSON        SUNNY     63  34  34 CALM      30.15F
CODY           SUNNY    N/A N/A N/A E10       30.04F
GREYBULL       SUNNY     73  32  22 S9        30.02F
WORLAND        SUNNY     74  32  21 N5        30.02F
SHERIDAN       SUNNY     75  32  20 VRB3      30.03F
BUFFALO        SUNNY     70  32  24 VRB5      30.08F
GILLETTE       SUNNY     72  34  24 VRB3      30.06F
HULETT         FAIR      70  36  28 W3        30.08
NEWCASTLE      FAIR      70  32  24 NW8       30.07

$$
WYZ014>020-022>026-101>103-192200-
CENTRAL WYOMING

CITY           SKY/WX    TMP DP  RH WIND       PRES   REMARKS
BIG PINEY      SUNNY     64  23  21 MISG      30.19F
PINEDALE       CLEAR     63  21  20 S6        30.20F
DUBOIS         FAIR      63  21  20 SE8       30.16F
LANDER         SUNNY     67  31  26 CALM      30.09F
RIVERTON       SUNNY     66  33  29 SE5       30.10F
CASPER         SUNNY     70  30  22 SW8       30.10F
DOUGLAS        SUNNY     72  30  21 VRB3      30.09F

$$
WYZ021-027>030-104>119-192200-
SOUTHERN WYOMING

CITY           SKY/WX    TMP DP  RH WIND       PRES   REMARKS
EVANSTON       MOSUNNY   65  26  23 W7        30.18F
KEMMERER       CLEAR     63  23  22 S7        30.20F
FORT BRIDGER   FAIR      64  25  23 CALM      30.22S
ROCK SPRINGS   SUNNY     65  29  25 N8        30.17F
DIXON          FAIR      68  32  25 W3        30.19S
RAWLINS        SUNNY     66  26  22 VRB6      30.17F
SARATOGA       FAIR      64  28  25 CALM      30.19S
LARAMIE        SUNNY     64  28  25 N8        30.19S
CHEYENNE       SUNNY     68  31  25 NE10      30.14S
TORRINGTON     SUNNY     72  33  24 VRB3      30.05F
PINE BLUFFS    FAIR      70  32  24 N5        30.10F

$$


USA.gov is the U.S. government's official web portal to all federal, state and local government web resources and services.